| time (UTC) | temp F | wind direction | speed MPH | gust MPH | rain 1hr in | rain 24hr in | rain mn in | humidity % | barometer mb |
| 20260831223041 | 83 | 272 | 0.0 | 10.0 | 0.00 | 0.00 | 0.00 | 36 | 1011.0 |
| 20260831221545 | 84 | 314 | 0.0 | 1.0 | 0.00 | 0.00 | 0.00 | 34 | 1011.1 |
| 20260831220038 | 85 | 300 | 0.0 | 11.0 | 0.00 | 0.00 | 0.00 | 33 | 1011.3 |
| 20260831214542 | 85 | 300 | 2.0 | 10.0 | 0.00 | 0.00 | 0.00 | 32 | 1011.1 |
| 20260831213039 | 86 | 300 | 0.0 | 12.0 | 0.00 | 0.00 | 0.00 | 32 | 1011.3 |
| 20260831211534 | 87 | 323 | 1.0 | 10.0 | 0.00 | 0.00 | 0.00 | 30 | 1011.5 |
| 20260831210031 | 88 | 303 | 0.0 | 7.0 | 0.00 | 0.00 | 0.00 | 29 | 1011.3 |
| 20260831204530 | 88 | 305 | 0.0 | 13.0 | 0.00 | 0.00 | 0.00 | 29 | 1011.4 |
| 20260831203027 | 88 | 337 | 0.0 | 10.0 | 0.00 | 0.00 | 0.00 | 28 | 1011.6 |
| 20260831201529 | 88 | 318 | 3.0 | 13.0 | 0.00 | 0.00 | 0.00 | 27 | 1011.7 |
| 20260831200024 | 88 | 319 | 0.0 | 12.0 | 0.00 | 0.00 | 0.00 | 27 | 1011.6 |
| 20260831194521 | 87 | 308 | 0.0 | 11.0 | 0.00 | 0.00 | 0.00 | 27 | 1011.7 |
| 20260831193031 | 86 | 321 | 4.0 | 16.0 | 0.00 | 0.00 | 0.00 | 28 | 1011.9 |
| 20260831191518 | 87 | 286 | 0.0 | 11.0 | 0.00 | 0.00 | 0.00 | 28 | 1012.1 |
| 20260831190017 | 86 | 294 | 3.0 | 15.0 | 0.00 | 0.00 | 0.00 | 28 | 1012.1 |
| 20260831184512 | 86 | 290 | 1.0 | 12.0 | 0.00 | 0.00 | 0.00 | 27 | 1012.3 |
| 20260831183009 | 85 | 286 | 0.0 | 9.0 | 0.00 | 0.00 | 0.00 | 27 | 1012.2 |
| 20260831181506 | 85 | 300 | 0.0 | 13.0 | 0.00 | 0.00 | 0.00 | 27 | 1012.1 |
| 20260831180002 | 84 | 286 | 0.0 | 7.0 | 0.00 | 0.00 | 0.00 | 28 | 1011.9 |
| 20260831174504 | 84 | 284 | 0.0 | 6.0 | 0.00 | 0.00 | 0.00 | 31 | 1012.1 |
| 20260831173100 | 84 | 290 | 1.0 | 14.0 | 0.00 | 0.00 | 0.00 | 28 | 1011.9 |
| 20260831171558 | 83 | 299 | 0.0 | 0.0 | 0.00 | 0.00 | 0.00 | 28 | 1011.7 |
| 20260831170055 | 82 | 301 | 0.0 | 6.0 | 0.00 | 0.00 | 0.00 | 24 | 1012.0 |
| 20260831164551 | 81 | 318 | 0.0 | 6.0 | 0.00 | 0.00 | 0.00 | 23 | 1012.0 |
| 20260831163046 | 79 | 306 | 0.0 | 0.0 | 0.00 | 0.00 | 0.00 | 24 | 1012.0 |
| 20260831161549 | 77 | 311 | 0.0 | 0.0 | 0.00 | 0.00 | 0.00 | 22 | 1011.9 |
| 20260831160038 | 74 | 307 | 0.0 | 0.0 | 0.00 | 0.00 | 0.00 | 19 | 1011.9 |
| 20260831154538 | 70 | 318 | 0.0 | 0.0 | 0.00 | 0.00 | 0.00 | 21 | 1011.9 |
| 20260831153028 | 65 | 198 | 0.0 | 0.0 | 0.00 | 0.00 | 0.00 | 25 | 1011.8 |
| 20260831151525 | 63 | 196 | 0.0 | 0.0 | 0.00 | 0.00 | 0.00 | 28 | 1011.6 |
| 20260831150024 | 61 | 196 | 0.0 | 0.0 | 0.00 | 0.00 | 0.00 | 32 | 1011.6 |
| 20260831144520 | 59 | 196 | 0.0 | 0.0 | 0.00 | 0.00 | 0.00 | 33 | 1011.4 |
| 20260831143018 | 58 | 196 | 0.0 | 0.0 | 0.00 | 0.00 | 0.00 | 34 | 1011.1 |
| 20260831141517 | 57 | 196 | 0.0 | 0.0 | 0.00 | 0.00 | 0.00 | 34 | 1010.8 |
| 20260831140016 | 56 | 196 | 0.0 | 0.0 | 0.00 | 0.00 | 0.00 | 34 | 1010.7 |
| 20260831134516 | 56 | 196 | 0.0 | 0.0 | 0.00 | 0.00 | 0.00 | 34 | 1010.4 |
| 20260831133027 | 56 | 196 | 0.0 | 0.0 | 0.00 | 0.00 | 0.00 | 36 | 1010.2 |
| 20260831131517 | 56 | 196 | 0.0 | 0.0 | 0.00 | 0.00 | 0.00 | 34 | 1010.2 |
| 20260831130013 | 56 | 196 | 0.0 | 0.0 | 0.00 | 0.00 | 0.00 | 34 | 1010.2 |
| 20260831124513 | 56 | 196 | 0.0 | 0.0 | 0.00 | 0.00 | 0.00 | 34 | 1009.9 |
| 20260831123015 | 56 | 196 | 0.0 | 0.0 | 0.00 | 0.00 | 0.00 | 34 | 1010.0 |
| 20260831121507 | 57 | 196 | 0.0 | 0.0 | 0.00 | 0.00 | 0.00 | 35 | 1009.9 |
| 20260831120008 | 57 | 196 | 0.0 | 0.0 | 0.00 | 0.00 | 0.00 | 34 | 1010.0 |
| 20260831114504 | 57 | 196 | 0.0 | 0.0 | 0.00 | 0.00 | 0.00 | 34 | 1010.0 |
| 20260831113002 | 57 | 196 | 0.0 | 0.0 | 0.00 | 0.00 | 0.00 | 34 | 1010.2 |
| 20260831111600 | 58 | 196 | 0.0 | 0.0 | 0.00 | 0.00 | 0.00 | 32 | 1010.1 |
| 20260831104610 | 58 | 196 | 0.0 | 0.0 | 0.00 | 0.00 | 0.00 | 33 | 1010.0 |
| 20260831103055 | 58 | 196 | 0.0 | 0.0 | 0.00 | 0.00 | 0.00 | 33 | 1010.1 |
| 20260831101553 | 58 | 196 | 0.0 | 0.0 | 0.00 | 0.00 | 0.00 | 34 | 1010.2 |
| 20260831100103 | 59 | 196 | 0.0 | 0.0 | 0.00 | 0.00 | 0.00 | 35 | 1010.2 |
| 20260831094550 | 59 | 196 | 0.0 | 0.0 | 0.00 | 0.00 | 0.00 | 34 | 1010.4 |
| 20260831093050 | 59 | 196 | 0.0 | 0.0 | 0.00 | 0.00 | 0.00 | 33 | 1010.4 |
| 20260831091547 | 59 | 196 | 0.0 | 0.0 | 0.00 | 0.00 | 0.00 | 34 | 1010.4 |
| 20260831090045 | 59 | 196 | 0.0 | 0.0 | 0.00 | 0.00 | 0.00 | 36 | 1010.5 |
| 20260831084545 | 59 | 196 | 0.0 | 0.0 | 0.00 | 0.00 | 0.00 | 39 | 1010.5 |
| 20260831083045 | 60 | 196 | 0.0 | 0.0 | 0.00 | 0.00 | 0.00 | 37 | 1010.5 |
| 20260831081543 | 60 | 196 | 0.0 | 0.0 | 0.00 | 0.00 | 0.00 | 36 | 1010.5 |
| 20260831080052 | 60 | 196 | 0.0 | 0.0 | 0.00 | 0.00 | 0.00 | 37 | 1010.5 |
| 20260831074536 | 60 | 196 | 0.0 | 0.0 | 0.00 | 0.00 | 0.00 | 33 | 1010.6 |
| 20260831073035 | 60 | 262 | 0.0 | 0.0 | 0.00 | 0.00 | 0.00 | 33 | 1010.6 |
| 20260831071530 | 61 | 262 | 0.0 | 0.0 | 0.00 | 0.00 | 0.00 | 34 | 1010.7 |
| 20260831070030 | 61 | 262 | 0.0 | 0.0 | 0.00 | 0.00 | 0.00 | 38 | 1010.7 |
| 20260831064528 | 61 | 262 | 0.0 | 0.0 | 0.00 | 0.00 | 0.00 | 40 | 1010.8 |
| 20260831063026 | 62 | 262 | 0.0 | 0.0 | 0.00 | 0.00 | 0.00 | 45 | 1010.9 |
| 20260831061525 | 62 | 262 | 0.0 | 0.0 | 0.00 | 0.00 | 0.00 | 46 | 1010.6 |
| 20260831060024 | 62 | 300 | 0.0 | 0.0 | 0.00 | 0.00 | 0.00 | 46 | 1010.7 |
| 20260831054524 | 62 | 299 | 0.0 | 0.0 | 0.00 | 0.00 | 0.00 | 44 | 1010.4 |
| 20260831053023 | 63 | 299 | 0.0 | 0.0 | 0.00 | 0.00 | 0.00 | 44 | 1010.5 |
| 20260831051523 | 63 | 299 | 0.0 | 0.0 | 0.00 | 0.00 | 0.00 | 44 | 1010.5 |
| 20260831050022 | 64 | 299 | 0.0 | 0.0 | 0.00 | 0.00 | 0.00 | 44 | 1010.6 |
| 20260831044522 | 65 | 299 | 0.0 | 0.0 | 0.00 | 0.00 | 0.00 | 44 | 1010.4 |
| 20260831043020 | 66 | 299 | 0.0 | 0.0 | 0.00 | 0.00 | 0.00 | 44 | 1010.2 |
| 20260831041522 | 67 | 299 | 0.0 | 0.0 | 0.00 | 0.00 | 0.00 | 43 | 1010.4 |
| 20260831040024 | 68 | 299 | 0.0 | 0.0 | 0.00 | 0.00 | 0.00 | 43 | 1010.2 |
| 20260831034522 | 69 | 299 | 0.0 | 0.0 | 0.00 | 0.00 | 0.00 | 42 | 1010.2 |
| 20260831033019 | 70 | 299 | 0.0 | 0.0 | 0.00 | 0.00 | 0.00 | 42 | 1009.9 |
| 20260831031523 | 71 | 299 | 0.0 | 0.0 | 0.00 | 0.00 | 0.00 | 41 | 1009.7 |
| 20260831030018 | 73 | 299 | 0.0 | 0.0 | 0.00 | 0.00 | 0.00 | 39 | 1009.7 |
| 20260831024519 | 74 | 299 | 0.0 | 0.0 | 0.00 | 0.00 | 0.00 | 37 | 1009.6 |
| 20260831023016 | 76 | 299 | 0.0 | 0.0 | 0.00 | 0.00 | 0.00 | 34 | 1009.7 |
| 20260831021528 | 77 | 299 | 0.0 | 0.0 | 0.00 | 0.00 | 0.00 | 33 | 1009.6 |
| 20260831020016 | 78 | 295 | 0.0 | 0.0 | 0.00 | 0.00 | 0.00 | 32 | 1009.5 |
| 20260831014515 | 78 | 304 | 0.0 | 0.0 | 0.00 | 0.00 | 0.00 | 30 | 1009.6 |
| 20260831013023 | 79 | 301 | 0.0 | 0.0 | 0.00 | 0.00 | 0.00 | 30 | 1009.5 |
| 20260831011515 | 80 | 323 | 0.0 | 1.0 | 0.00 | 0.00 | 0.00 | 29 | 1009.6 |
| 20260831010016 | 81 | 302 | 0.0 | 1.0 | 0.00 | 0.00 | 0.00 | 27 | 1009.5 |
| 20260831004514 | 81 | 230 | 0.0 | 12.0 | 0.00 | 0.00 | 0.00 | 26 | 1009.6 |
| 20260831003012 | 82 | 271 | 0.0 | 10.0 | 0.00 | 0.00 | 0.00 | 25 | 1009.5 |
| 20260831001510 | 83 | 241 | 1.0 | 8.0 | 0.00 | 0.00 | 0.00 | 26 | 1009.5 |
| 20260831000017 | 84 | 281 | 0.0 | 11.0 | 0.00 | 0.00 | 0.00 | 26 | 1009.4 |
| 20260830234508 | 84 | 284 | 1.0 | 10.0 | 0.00 | 0.00 | 0.00 | 26 | 1009.3 |
| 20260830233011 | 85 | 313 | 0.0 | 11.0 | 0.00 | 0.00 | 0.00 | 27 | 1009.6 |
| 20260830231505 | 85 | 323 | 0.0 | 10.0 | 0.00 | 0.00 | 0.00 | 28 | 1009.6 |
| 20260830230004 | 86 | 165 | 0.0 | 2.0 | 0.00 | 0.00 | 0.00 | 28 | 1009.5 |
| 20260830224503 | 86 | 316 | 1.0 | 11.0 | 0.00 | 0.00 | 0.00 | 28 | 1009.6 |